Time,TemperatureF,DewpointF,PressureIn,WindDirection,WindDirectionDegrees,WindSpeedMPH,WindSpeedGustMPH,Humidity,HourlyPrecipIn,Conditions,Clouds,dailyrainin,SoftwareType,DateUTC
2013-03-16 00:08:00,48.4,34.0,28.05,SSW,197,2.0,6.0,59,0.00,,,0.00,weatherlink.com 1.10,2013-03-16 04:08:00,
2013-03-16 00:23:00,48.3,34.0,28.05,SSE,153,2.0,10.0,59,0.00,,,0.00,weatherlink.com 1.10,2013-03-16 04:23:00,
2013-03-16 00:38:00,48.5,35.0,28.05,SSE,148,1.0,7.0,59,0.00,,,0.00,weatherlink.com 1.10,2013-03-16 04:38:00,
2013-03-16 00:53:00,48.2,35.0,28.05,SSE,165,2.0,7.0,60,0.00,,,0.00,weatherlink.com 1.10,2013-03-16 04:53:00,
2013-03-16 01:08:00,48.7,35.0,28.06,South,181,4.0,11.0,60,0.00,,,0.00,weatherlink.com 1.10,2013-03-16 05:08:00,
2013-03-16 01:23:00,48.3,37.0,28.05,West,274,5.0,8.0,64,0.00,,,0.00,weatherlink.com 1.10,2013-03-16 05:23:00,
2013-03-16 01:38:00,47.6,37.0,28.05,NW,323,2.0,8.0,68,0.00,,,0.00,weatherlink.com 1.10,2013-03-16 05:38:00,
2013-03-16 01:53:00,46.6,38.0,28.04,South,181,1.0,4.0,72,0.00,,,0.00,weatherlink.com 1.10,2013-03-16 05:53:00,
2013-03-16 02:08:00,45.9,38.0,28.05,SW,214,1.0,6.0,73,0.00,,,0.00,weatherlink.com 1.10,2013-03-16 06:08:00,
2013-03-16 02:23:00,46.4,38.0,28.03,SE,129,1.0,8.0,72,0.00,,,0.00,weatherlink.com 1.10,2013-03-16 06:23:00,
2013-03-16 02:38:00,45.8,37.0,28.03,SSW,203,1.0,15.0,72,0.00,,,0.00,weatherlink.com 1.10,2013-03-16 06:38:00,
2013-03-16 02:53:00,44.8,37.0,28.02,North,8,0.0,3.0,74,0.00,,,0.00,weatherlink.com 1.10,2013-03-16 06:53:00,
2013-03-16 03:08:00,44.3,37.0,28.02,North,351,0.0,2.0,75,0.00,,,0.00,weatherlink.com 1.10,2013-03-16 07:08:00,
2013-03-16 03:23:00,43.4,37.0,28.02,SSW,195,1.0,4.0,77,0.00,,,0.00,weatherlink.com 1.10,2013-03-16 07:23:00,
2013-03-16 03:38:00,41.5,36.0,28.01,NNW,347,0.0,2.0,81,0.00,,,0.00,weatherlink.com 1.10,2013-03-16 07:38:00,
2013-03-16 03:53:00,39.7,36.0,28.00,North,1,0.0,2.0,85,0.00,,,0.00,weatherlink.com 1.10,2013-03-16 07:53:00,
2013-03-16 04:08:00,38.3,35.0,27.99,North,359,0.0,1.0,86,0.00,,,0.00,weatherlink.com 1.10,2013-03-16 08:08:00,
2013-03-16 04:23:00,37.9,34.0,27.99,North,360,0.0,1.0,87,0.00,,,0.00,weatherlink.com 1.10,2013-03-16 08:23:00,
2013-03-16 04:38:00,37.7,35.0,27.98,NNW,330,0.0,2.0,88,0.00,,,0.00,weatherlink.com 1.10,2013-03-16 08:38:00,
2013-03-16 04:53:00,37.8,35.0,27.99,NNW,342,0.0,2.0,88,0.00,,,0.00,weatherlink.com 1.10,2013-03-16 08:53:00,
2013-03-16 05:09:00,36.8,33.0,28.00,South,181,0.0,1.0,87,0.00,,,0.00,weatherlink.com 1.10,2013-03-16 09:09:00,
2013-03-16 05:24:00,35.7,33.0,28.00,South,179,0.0,1.0,91,0.00,,,0.00,weatherlink.com 1.10,2013-03-16 09:24:00,
2013-03-16 05:39:00,37.3,35.0,28.00,North,359,0.0,4.0,91,0.00,,,0.00,weatherlink.com 1.10,2013-03-16 09:39:00,
2013-03-16 05:54:00,37.3,35.0,28.01,North,8,0.0,0.0,90,0.00,,,0.00,weatherlink.com 1.10,2013-03-16 09:54:00,
2013-03-16 06:09:00,37.4,35.0,28.02,North,8,0.0,1.0,92,0.00,,,0.00,weatherlink.com 1.10,2013-03-16 10:09:00,
2013-03-16 06:24:00,37.7,36.0,28.02,North,8,0.0,0.0,93,0.01,,,0.01,weatherlink.com 1.10,2013-03-16 10:24:00,
2013-03-16 06:39:00,37.9,36.0,28.02,North,8,0.0,1.0,93,0.02,,,0.02,weatherlink.com 1.10,2013-03-16 10:39:00,
2013-03-16 06:54:00,38.0,37.0,28.01,North,8,0.0,0.0,94,0.04,,,0.04,weatherlink.com 1.10,2013-03-16 10:54:00,
2013-03-16 07:09:00,38.3,37.0,28.00,North,8,0.0,1.0,95,0.05,,,0.05,weatherlink.com 1.10,2013-03-16 11:09:00,
2013-03-16 07:24:00,38.4,37.0,27.99,North,6,0.0,0.0,95,0.04,,,0.05,weatherlink.com 1.10,2013-03-16 11:24:00,
2013-03-16 07:39:00,38.5,37.0,28.00,North,6,0.0,1.0,95,0.03,,,0.05,weatherlink.com 1.10,2013-03-16 11:39:00,
2013-03-16 07:54:00,39.1,38.0,28.01,North,350,4.0,5.0,96,0.01,,,0.05,weatherlink.com 1.10,2013-03-16 11:54:00,
2013-03-16 08:09:00,39.6,39.0,28.00,NW,321,0.0,1.0,96,0.00,,,0.05,weatherlink.com 1.10,2013-03-16 12:09:00,
2013-03-16 08:24:00,40.2,39.0,28.00,NNW,337,0.0,2.0,96,0.00,,,0.05,weatherlink.com 1.10,2013-03-16 12:24:00,
2013-03-16 08:39:00,40.7,40.0,27.99,NNW,330,0.0,0.0,96,0.00,,,0.05,weatherlink.com 1.10,2013-03-16 12:39:00,
2013-03-16 08:54:00,41.3,40.0,27.98,SSW,200,0.0,1.0,96,0.00,,,0.05,weatherlink.com 1.10,2013-03-16 12:54:00,
2013-03-16 09:09:00,41.8,41.0,27.98,SSE,160,1.0,2.0,96,0.00,,,0.05,weatherlink.com 1.10,2013-03-16 13:09:00,
2013-03-16 09:24:00,42.3,41.0,27.97,SSW,197,0.0,1.0,96,0.00,,,0.05,weatherlink.com 1.10,2013-03-16 13:24:00,
2013-03-16 09:39:00,43.0,42.0,27.97,SSW,200,2.0,2.0,95,0.00,,,0.05,weatherlink.com 1.10,2013-03-16 13:39:00,
2013-03-16 09:54:00,44.2,42.0,27.96,NNE,20,3.0,6.0,93,0.00,,,0.05,weatherlink.com 1.10,2013-03-16 13:54:00,
2013-03-16 10:09:00,45.4,43.0,27.96,North,356,0.0,2.0,92,0.00,,,0.05,weatherlink.com 1.10,2013-03-16 14:09:00,
2013-03-16 10:24:00,46.7,44.0,27.95,North,355,1.0,2.0,89,0.00,,,0.05,weatherlink.com 1.10,2013-03-16 14:24:00,
2013-03-16 10:39:00,47.8,45.0,27.94,North,1,2.0,2.0,88,0.00,,,0.05,weatherlink.com 1.10,2013-03-16 14:39:00,
2013-03-16 10:54:00,48.6,45.0,27.94,North,357,1.0,4.0,87,0.00,,,0.05,weatherlink.com 1.10,2013-03-16 14:54:00,
2013-03-16 11:09:00,50.9,47.0,27.92,SSE,160,3.0,4.0,85,0.00,,,0.05,weatherlink.com 1.10,2013-03-16 15:09:00,
2013-03-16 11:24:00,53.2,48.0,27.92,South,191,2.0,6.0,82,0.00,,,0.05,weatherlink.com 1.10,2013-03-16 15:24:00,
2013-03-16 11:39:00,53.7,47.0,27.94,South,188,2.0,5.0,79,0.00,,,0.05,weatherlink.com 1.10,2013-03-16 15:39:00,
2013-03-16 11:54:00,51.7,48.0,27.94,SW,217,0.0,5.0,86,0.05,,,0.10,weatherlink.com 1.10,2013-03-16 15:54:00,
2013-03-16 12:09:00,50.8,49.0,27.90,SSW,210,0.0,2.0,92,0.10,,,0.15,weatherlink.com 1.10,2013-03-16 16:09:00,
2013-03-16 12:24:00,52.8,51.0,27.91,South,190,2.0,5.0,94,0.10,,,0.15,weatherlink.com 1.10,2013-03-16 16:24:00,
2013-03-16 12:39:00,55.2,51.0,27.89,SSW,210,6.0,9.0,87,0.10,,,0.15,weatherlink.com 1.10,2013-03-16 16:39:00,
2013-03-16 12:54:00,55.8,52.0,27.88,SSW,210,3.0,6.0,87,0.05,,,0.15,weatherlink.com 1.10,2013-03-16 16:54:00,
2013-03-16 13:09:00,56.8,52.0,27.88,SW,232,2.0,5.0,83,0.00,,,0.00,weatherlink.com 1.10,2013-03-16 17:09:00,
2013-03-16 13:24:00,57.3,51.0,27.88,SSW,193,1.0,7.0,79,0.00,,,0.00,weatherlink.com 1.10,2013-03-16 17:24:00,
2013-03-16 13:39:00,58.9,51.0,27.87,SW,219,2.0,13.0,74,0.00,,,0.00,weatherlink.com 1.10,2013-03-16 17:39:00,
2013-03-16 13:54:00,59.2,51.0,27.87,SSW,207,5.0,13.0,74,0.00,,,0.00,weatherlink.com 1.10,2013-03-16 17:54:00,
2013-03-16 14:10:00,59.7,50.0,27.86,SW,228,2.0,15.0,71,0.00,,,0.00,weatherlink.com 1.10,2013-03-16 18:10:00,
2013-03-16 14:25:00,59.8,50.0,27.88,SSE,167,5.0,12.0,70,0.00,,,0.00,weatherlink.com 1.10,2013-03-16 18:25:00,
2013-03-16 14:40:00,60.2,50.0,27.88,SW,217,6.0,10.0,69,0.00,,,0.00,weatherlink.com 1.10,2013-03-16 18:40:00,
2013-03-16 14:55:00,60.5,50.0,27.89,SSW,195,5.0,8.0,68,0.00,,,0.00,weatherlink.com 1.10,2013-03-16 18:55:00,
2013-03-16 15:10:00,61.1,52.0,27.88,South,190,5.0,17.0,73,0.00,,,0.00,weatherlink.com 1.10,2013-03-16 19:10:00,
2013-03-16 15:25:00,62.7,50.0,27.88,SSE,148,9.0,16.0,64,0.00,,,0.00,weatherlink.com 1.10,2013-03-16 19:25:00,
2013-03-16 15:40:00,61.8,50.0,27.88,South,180,2.0,17.0,65,0.00,,,0.00,weatherlink.com 1.10,2013-03-16 19:40:00,
2013-03-16 15:55:00,60.9,50.0,27.88,South,188,0.0,14.0,67,0.00,,,0.00,weatherlink.com 1.10,2013-03-16 19:55:00,
2013-03-16 16:10:00,60.3,50.0,27.89,West,276,3.0,10.0,68,0.00,,,0.00,weatherlink.com 1.10,2013-03-16 20:10:00,
2013-03-16 16:25:00,59.7,49.0,27.89,SSW,211,2.0,9.0,69,0.00,,,0.00,weatherlink.com 1.10,2013-03-16 20:25:00,
2013-03-16 16:40:00,59.0,50.0,27.90,West,273,4.0,9.0,72,0.00,,,0.00,weatherlink.com 1.10,2013-03-16 20:40:00,
2013-03-16 16:55:00,58.9,50.0,27.89,South,188,6.0,11.0,72,0.00,,,0.00,weatherlink.com 1.10,2013-03-16 20:55:00,
2013-03-16 17:10:00,58.8,50.0,27.90,SSW,210,5.0,7.0,72,0.00,,,0.00,weatherlink.com 1.10,2013-03-16 21:10:00,
2013-03-16 17:25:00,59.4,50.0,27.90,SSW,195,3.0,4.0,70,0.00,,,0.00,weatherlink.com 1.10,2013-03-16 21:25:00,
2013-03-16 17:40:00,59.8,49.0,27.90,SW,215,10.0,14.0,68,0.00,,,0.00,weatherlink.com 1.10,2013-03-16 21:40:00,
2013-03-16 17:55:00,59.7,49.0,27.92,South,188,2.0,11.0,68,0.00,,,0.00,weatherlink.com 1.10,2013-03-16 21:55:00,
2013-03-16 18:10:00,59.7,49.0,27.92,SSE,166,1.0,8.0,67,0.00,,,0.00,weatherlink.com 1.10,2013-03-16 22:10:00,
2013-03-16 18:25:00,59.2,49.0,27.92,NNE,22,0.0,3.0,68,0.00,,,0.00,weatherlink.com 1.10,2013-03-16 22:25:00,
2013-03-16 18:40:00,58.9,47.0,27.93,South,172,0.0,11.0,65,0.00,,,0.00,weatherlink.com 1.10,2013-03-16 22:40:00,
2013-03-16 18:55:00,58.9,47.0,27.94,NNW,332,1.0,6.0,64,0.00,,,0.00,weatherlink.com 1.10,2013-03-16 22:55:00,
2013-03-16 19:10:00,58.2,47.0,27.95,SSE,163,0.0,3.0,66,0.00,,,0.00,weatherlink.com 1.10,2013-03-16 23:10:00,
2013-03-16 19:25:00,57.9,45.0,27.96,NNW,346,1.0,5.0,62,0.00,,,0.00,weatherlink.com 1.10,2013-03-16 23:25:00,
2013-03-16 19:40:00,57.3,44.0,27.96,South,181,0.0,5.0,62,0.00,,,0.00,weatherlink.com 1.10,2013-03-16 23:40:00,
2013-03-16 19:55:00,55.5,44.0,27.97,South,184,0.0,1.0,65,0.00,,,0.00,weatherlink.com 1.10,2013-03-16 23:55:00,
2013-03-16 20:10:00,55.0,44.0,27.99,ESE,102,0.0,6.0,67,0.00,,,0.00,weatherlink.com 1.10,2013-03-17 00:10:00,
2013-03-16 20:25:00,55.1,43.0,28.00,West,262,1.0,6.0,64,0.00,,,0.00,weatherlink.com 1.10,2013-03-17 00:25:00,
2013-03-16 20:40:00,54.7,43.0,28.01,East,100,0.0,4.0,66,0.00,,,0.00,weatherlink.com 1.10,2013-03-17 00:40:00,
2013-03-16 20:55:00,54.8,42.0,28.02,East,91,2.0,7.0,63,0.00,,,0.00,weatherlink.com 1.10,2013-03-17 00:55:00,
2013-03-16 21:10:00,55.1,43.0,28.03,WSW,243,2.0,6.0,64,0.00,,,0.00,weatherlink.com 1.10,2013-03-17 01:10:00,
2013-03-16 21:25:00,54.4,42.0,28.03,NW,326,0.0,9.0,64,0.00,,,0.00,weatherlink.com 1.10,2013-03-17 01:25:00,
2013-03-16 21:40:00,53.1,42.0,28.04,West,259,0.0,3.0,67,0.00,,,0.00,weatherlink.com 1.10,2013-03-17 01:40:00,
2013-03-16 21:56:00,50.7,42.0,28.05,SE,129,0.0,2.0,71,0.00,,,0.00,weatherlink.com 1.10,2013-03-17 01:56:00,
2013-03-16 22:11:00,50.0,41.0,28.06,NW,308,4.0,4.0,72,0.00,,,0.00,weatherlink.com 1.10,2013-03-17 02:11:00,
2013-03-16 22:26:00,51.3,41.0,28.06,West,277,1.0,5.0,67,0.00,,,0.00,weatherlink.com 1.10,2013-03-17 02:26:00,
2013-03-16 22:41:00,49.2,41.0,28.07,SE,130,0.0,2.0,72,0.00,,,0.00,weatherlink.com 1.10,2013-03-17 02:41:00,
2013-03-16 22:56:00,46.8,40.0,28.07,SE,125,0.0,2.0,78,0.00,,,0.00,weatherlink.com 1.10,2013-03-17 02:56:00,
2013-03-16 23:26:00,44.6,38.0,28.07,East,86,0.0,1.0,79,0.00,,,0.00,weatherlink.com 1.10,2013-03-17 03:26:00,
2013-03-16 23:41:00,42.5,38.0,28.09,East,94,0.0,1.0,84,0.00,,,0.00,weatherlink.com 1.10,2013-03-17 03:41:00,
2013-03-16 23:56:00,40.9,37.0,28.09,ESE,121,0.0,1.0,86,0.00,,,0.00,weatherlink.com 1.10,2013-03-17 03:56:00,